| time (UTC) | temp F | wind direction | speed MPH | gust MPH | rain 1hr in | rain 24hr in | rain mn in | humidity % | barometer mb |
| 20260509213053 | 78 | 327 | 4.0 | 11.0 | 0.00 | 0.00 | 0.00 | 16 | 1018.4 |
| 20260509211552 | 78 | 325 | 4.0 | 9.0 | 0.00 | 0.00 | 0.00 | 17 | 1018.5 |
| 20260509210057 | 77 | 310 | 5.0 | 9.0 | 0.00 | 0.00 | 0.00 | 18 | 1018.8 |
| 20260509204548 | 77 | 346 | 2.0 | 7.0 | 0.00 | 0.00 | 0.00 | 18 | 1018.9 |
| 20260509203050 | 76 | 28 | 2.0 | 8.0 | 0.00 | 0.00 | 0.00 | 19 | 1019.0 |
| 20260509201543 | 75 | 128 | 3.0 | 7.0 | 0.00 | 0.00 | 0.00 | 19 | 1019.1 |
| 20260509200044 | 74 | 329 | 2.0 | 5.0 | 0.00 | 0.00 | 0.00 | 19 | 1019.4 |
| 20260509194538 | 74 | 342 | 4.0 | 6.0 | 0.00 | 0.00 | 0.00 | 19 | 1019.7 |
| 20260509193041 | 74 | 30 | 2.0 | 7.0 | 0.00 | 0.00 | 0.00 | 22 | 1019.9 |
| 20260509191533 | 73 | 136 | 1.0 | 5.0 | 0.00 | 0.00 | 0.00 | 25 | 1020.1 |
| 20260509190042 | 72 | 341 | 1.0 | 5.0 | 0.00 | 0.00 | 0.00 | 25 | 1020.4 |
| 20260509184533 | 71 | 321 | 1.0 | 5.0 | 0.00 | 0.00 | 0.00 | 27 | 1020.6 |
| 20260509183029 | 70 | 121 | 2.0 | 5.0 | 0.00 | 0.00 | 0.00 | 30 | 1020.9 |
| 20260509181520 | 69 | 103 | 1.0 | 4.0 | 0.00 | 0.00 | 0.00 | 32 | 1021.0 |
| 20260509180015 | 67 | 355 | 1.0 | 4.0 | 0.00 | 0.00 | 0.00 | 33 | 1021.1 |
| 20260509174523 | 66 | 59 | 2.0 | 5.0 | 0.00 | 0.00 | 0.00 | 35 | 1021.2 |
| 20260509173013 | 65 | 34 | 1.0 | 6.0 | 0.00 | 0.00 | 0.00 | 37 | 1021.4 |
| 20260509171508 | 65 | 126 | 0.0 | 2.0 | 0.00 | 0.00 | 0.00 | 40 | 1021.8 |
| 20260509170011 | 63 | 5 | 2.0 | 5.0 | 0.00 | 0.00 | 0.00 | 43 | 1021.9 |
| 20260509164502 | 61 | 355 | 2.0 | 4.0 | 0.00 | 0.00 | 0.00 | 44 | 1022.0 |
| 20260509163102 | 60 | 71 | 0.0 | 2.0 | 0.00 | 0.00 | 0.00 | 49 | 1022.0 |
| 20260509161556 | 58 | 73 | 1.0 | 3.0 | 0.00 | 0.00 | 0.00 | 51 | 1022.2 |
| 20260509160050 | 57 | 63 | 0.0 | 2.0 | 0.00 | 0.00 | 0.00 | 54 | 1022.2 |
| 20260509154547 | 55 | 66 | 0.0 | 4.0 | 0.00 | 0.00 | 0.00 | 56 | 1022.6 |
| 20260509153045 | 54 | 86 | 2.0 | 7.0 | 0.00 | 0.00 | 0.00 | 57 | 1022.6 |
| 20260509151540 | 52 | 56 | 0.0 | 5.0 | 0.00 | 0.00 | 0.00 | 62 | 1022.6 |
| 20260509150035 | 49 | 73 | 1.0 | 6.0 | 0.00 | 0.00 | 0.00 | 65 | 1022.8 |
| 20260509144530 | 47 | 94 | 3.0 | 7.0 | 0.00 | 0.00 | 0.00 | 69 | 1022.8 |
| 20260509143028 | 46 | 66 | 2.0 | 6.0 | 0.00 | 0.00 | 0.00 | 70 | 1022.8 |
| 20260509141533 | 44 | 65 | 1.0 | 4.0 | 0.00 | 0.00 | 0.00 | 74 | 1022.8 |
| 20260509140030 | 43 | 73 | 2.0 | 5.0 | 0.00 | 0.00 | 0.00 | 76 | 1023.0 |
| 20260509134517 | 41 | 114 | 0.0 | 4.0 | 0.00 | 0.00 | 0.00 | 78 | 1023.1 |
| 20260509133016 | 40 | 76 | 1.0 | 5.0 | 0.00 | 0.00 | 0.00 | 80 | 1022.9 |
| 20260509131517 | 39 | 98 | 1.0 | 5.0 | 0.00 | 0.00 | 0.00 | 82 | 1022.7 |
| 20260509130132 | 38 | 115 | 1.0 | 4.0 | 0.00 | 0.00 | 0.00 | 84 | 1022.4 |
| 20260509124520 | 37 | 75 | 1.0 | 5.0 | 0.00 | 0.00 | 0.00 | 83 | 1022.4 |
| 20260509123019 | 36 | 115 | 0.0 | 3.0 | 0.00 | 0.00 | 0.00 | 84 | 1022.5 |
| 20260509121514 | 37 | 115 | 0.0 | 1.0 | 0.00 | 0.00 | 0.00 | 84 | 1022.6 |
| 20260509120008 | 37 | 109 | 0.0 | 2.0 | 0.00 | 0.00 | 0.00 | 83 | 1022.6 |
| 20260509114505 | 37 | 131 | 0.0 | 2.0 | 0.00 | 0.00 | 0.00 | 83 | 1022.6 |
| 20260509113004 | 38 | 106 | 0.0 | 2.0 | 0.00 | 0.00 | 0.00 | 83 | 1022.5 |
| 20260509111504 | 38 | 113 | 0.0 | 2.0 | 0.00 | 0.00 | 0.00 | 83 | 1022.5 |
| 20260509110006 | 38 | 115 | 1.0 | 2.0 | 0.00 | 0.00 | 0.00 | 82 | 1022.6 |
| 20260509104502 | 38 | 127 | 0.0 | 2.0 | 0.00 | 0.00 | 0.00 | 82 | 1022.6 |
| 20260509103003 | 37 | 116 | 0.0 | 2.0 | 0.00 | 0.00 | 0.00 | 82 | 1022.6 |
| 20260509101603 | 37 | 118 | 1.0 | 2.0 | 0.00 | 0.00 | 0.00 | 81 | 1022.6 |
| 20260509100058 | 38 | 126 | 1.0 | 5.0 | 0.00 | 0.00 | 0.00 | 78 | 1022.6 |
| 20260509094610 | 39 | 97 | 1.0 | 2.0 | 0.00 | 0.00 | 0.00 | 79 | 1022.6 |
| 20260509093055 | 40 | 117 | 0.0 | 0.0 | 0.00 | 0.00 | 0.00 | 79 | 1022.6 |
| 20260509091558 | 39 | 126 | 0.0 | 0.0 | 0.00 | 0.00 | 0.00 | 77 | 1022.7 |
| 20260509084559 | 40 | 114 | 0.0 | 2.0 | 0.00 | 0.00 | 0.00 | 77 | 1022.7 |
| 20260509083051 | 40 | 93 | 1.0 | 2.0 | 0.00 | 0.00 | 0.00 | 75 | 1022.8 |
| 20260509081550 | 40 | 93 | 0.0 | 2.0 | 0.00 | 0.00 | 0.00 | 76 | 1022.8 |
| 20260509080046 | 42 | 103 | 1.0 | 2.0 | 0.00 | 0.00 | 0.00 | 72 | 1022.8 |
| 20260509074550 | 42 | 87 | 0.0 | 1.0 | 0.00 | 0.00 | 0.00 | 72 | 1022.7 |
| 20260509073042 | 41 | 104 | 0.0 | 2.0 | 0.00 | 0.00 | 0.00 | 75 | 1022.7 |
| 20260509071539 | 41 | 94 | 1.0 | 3.0 | 0.00 | 0.00 | 0.00 | 74 | 1022.5 |
| 20260509070037 | 41 | 101 | 1.0 | 3.0 | 0.00 | 0.00 | 0.00 | 75 | 1022.2 |
| 20260509064535 | 43 | 88 | 0.0 | 2.0 | 0.00 | 0.00 | 0.00 | 71 | 1022.1 |
| 20260509063035 | 44 | 99 | 0.0 | 0.0 | 0.00 | 0.00 | 0.00 | 68 | 1021.9 |
| 20260509061533 | 44 | 99 | 0.0 | 2.0 | 0.00 | 0.00 | 0.00 | 68 | 1021.8 |
| 20260509060032 | 46 | 105 | 0.0 | 2.0 | 0.00 | 0.00 | 0.00 | 67 | 1021.7 |
| 20260509054540 | 47 | 94 | 1.0 | 2.0 | 0.00 | 0.00 | 0.00 | 63 | 1021.7 |
| 20260509053110 | 51 | 267 | 0.0 | 0.0 | 0.00 | 0.00 | 0.00 | 58 | 1021.8 |
| 20260509051532 | 52 | 267 | 0.0 | 0.0 | 0.00 | 0.00 | 0.00 | 54 | 1021.7 |
| 20260509050039 | 54 | 292 | 0.0 | 0.0 | 0.00 | 0.00 | 0.00 | 51 | 1021.6 |
| 20260509044526 | 55 | 292 | 0.0 | 0.0 | 0.00 | 0.00 | 0.00 | 49 | 1021.3 |
| 20260509043025 | 56 | 243 | 0.0 | 0.0 | 0.00 | 0.00 | 0.00 | 48 | 1021.2 |
| 20260509041524 | 58 | 252 | 0.0 | 2.0 | 0.00 | 0.00 | 0.00 | 45 | 1021.1 |
| 20260509040022 | 60 | 273 | 0.0 | 2.0 | 0.00 | 0.00 | 0.00 | 42 | 1020.9 |
| 20260509034520 | 61 | 320 | 1.0 | 3.0 | 0.00 | 0.00 | 0.00 | 40 | 1020.7 |
| 20260509033018 | 62 | 9 | 2.0 | 7.0 | 0.00 | 0.00 | 0.00 | 39 | 1020.3 |
| 20260509031517 | 63 | 337 | 2.0 | 10.0 | 0.00 | 0.00 | 0.00 | 37 | 1020.2 |
| 20260509030026 | 65 | 304 | 3.0 | 11.0 | 0.00 | 0.00 | 0.00 | 35 | 1019.7 |
| 20260509024511 | 66 | 294 | 3.0 | 9.0 | 0.00 | 0.00 | 0.00 | 34 | 1019.4 |
| 20260509023022 | 67 | 282 | 5.0 | 13.0 | 0.00 | 0.00 | 0.00 | 34 | 1019.2 |
| 20260509021512 | 68 | 315 | 4.0 | 8.0 | 0.00 | 0.00 | 0.00 | 31 | 1019.1 |
| 20260509020009 | 69 | 309 | 4.0 | 11.0 | 0.00 | 0.00 | 0.00 | 30 | 1018.9 |
| 20260509014508 | 70 | 5 | 3.0 | 9.0 | 0.00 | 0.00 | 0.00 | 28 | 1018.7 |
| 20260509013007 | 70 | 309 | 6.0 | 13.0 | 0.00 | 0.00 | 0.00 | 26 | 1018.5 |
| 20260509011508 | 71 | 331 | 4.0 | 13.0 | 0.00 | 0.00 | 0.00 | 26 | 1018.4 |
| 20260509010012 | 71 | 331 | 5.0 | 11.0 | 0.00 | 0.00 | 0.00 | 26 | 1018.4 |
| 20260509004506 | 72 | 349 | 4.0 | 13.0 | 0.00 | 0.00 | 0.00 | 25 | 1018.4 |
| 20260509003006 | 72 | 288 | 4.0 | 11.0 | 0.00 | 0.00 | 0.00 | 25 | 1018.4 |
| 20260509001505 | 72 | 333 | 4.0 | 11.0 | 0.00 | 0.00 | 0.00 | 26 | 1018.3 |
| 20260509000007 | 72 | 312 | 5.0 | 13.0 | 0.00 | 0.00 | 0.00 | 25 | 1018.2 |
| 20260508234506 | 73 | 323 | 5.0 | 11.0 | 0.00 | 0.00 | 0.00 | 25 | 1018.1 |
| 20260508233004 | 73 | 288 | 5.0 | 13.0 | 0.00 | 0.00 | 0.00 | 24 | 1018.2 |
| 20260508231504 | 73 | 283 | 6.0 | 18.0 | 0.00 | 0.00 | 0.00 | 24 | 1018.2 |
| 20260508230007 | 73 | 263 | 4.0 | 11.0 | 0.00 | 0.00 | 0.00 | 25 | 1018.1 |
| 20260508224502 | 73 | 325 | 6.0 | 16.0 | 0.00 | 0.00 | 0.00 | 24 | 1018.3 |
| 20260508223002 | 72 | 325 | 6.0 | 15.0 | 0.00 | 0.00 | 0.00 | 25 | 1018.4 |
| 20260508221502 | 73 | 343 | 9.0 | 17.0 | 0.00 | 0.00 | 0.00 | 23 | 1018.3 |
| 20260508220100 | 72 | 248 | 5.0 | 14.0 | 0.00 | 0.00 | 0.00 | 23 | 1018.4 |
| 20260508214559 | 73 | 296 | 6.0 | 15.0 | 0.00 | 0.00 | 0.00 | 23 | 1018.6 |